Location: Shandelee
(41.8790°N, 74.8713°W)
Time: 04:20:49
(UTC+00:00)

USA 305 - Pass Details

Date: 29 October 2020
Orbit: 569 x 577 km, 54.0° (Epoch: 22 November)

Event Time Altitude Azimuth Distance (km) Brightness Sun altitude
Rises 22:37:11 0° 312° (NW) 2,787 7.0 -8.1°
Reaches altitude 10° 22:39:41 10° 323° (NW) 1,885 5.9 -8.6°
Maximum altitude 22:43:28 30° 25° (NNE) 1,045 3.9 -9.2°
Enters shadow 22:46:38 13° 83° (E) 1,670 4.6 -9.8°
